Time,TemperatureF,DewpointF,PressureIn,WindDirection,WindDirectionDegrees,WindSpeedMPH,WindSpeedGustMPH,Humidity,HourlyPrecipIn,Conditions,Clouds,dailyrainin,SoftwareType,DateUTC
2013-05-01 00:01:00,59.0,50.4,30.16,North,6,5.0,16.0,73,0.00,,,0.00,meteohub,2013-05-01 04:01:00,
2013-05-01 00:02:00,59.0,50.4,30.16,SSE,153,6.0,16.0,73,0.00,,,0.00,meteohub,2013-05-01 04:02:00,
2013-05-01 00:03:00,59.0,50.4,30.16,East,92,3.0,16.0,73,0.00,,,0.00,meteohub,2013-05-01 04:03:00,
2013-05-01 00:08:00,58.8,50.2,30.16,SE,133,4.0,16.0,73,0.00,,,0.00,meteohub,2013-05-01 04:08:00,
2013-05-01 00:13:00,58.8,50.2,30.16,SSE,147,4.0,17.0,73,0.00,,,0.00,meteohub,2013-05-01 04:13:00,
2013-05-01 00:18:00,58.6,50.0,30.16,East,98,4.0,17.0,73,0.00,,,0.00,meteohub,2013-05-01 04:18:00,
2013-05-01 00:23:00,58.6,50.0,30.16,SE,145,3.0,17.0,73,0.00,,,0.00,meteohub,2013-05-01 04:23:00,
2013-05-01 00:28:00,58.5,49.8,30.17,ESE,105,3.0,13.0,73,0.00,,,0.00,meteohub,2013-05-01 04:28:00,
2013-05-01 00:34:00,58.5,49.8,30.17,SE,129,4.0,14.0,73,0.00,,,0.00,meteohub,2013-05-01 04:34:00,
2013-05-01 00:39:00,58.5,49.8,30.16,SSE,167,2.0,14.0,73,0.00,,,0.00,meteohub,2013-05-01 04:39:00,
2013-05-01 00:44:00,58.5,49.8,30.17,NNE,27,0.0,14.0,73,0.00,,,0.00,meteohub,2013-05-01 04:44:00,
2013-05-01 00:49:00,58.5,49.8,30.17,SE,129,4.0,14.0,73,0.00,,,0.00,meteohub,2013-05-01 04:49:00,
2013-05-01 00:54:00,58.5,49.8,30.17,East,89,3.0,13.0,73,0.00,,,0.00,meteohub,2013-05-01 04:54:00,
2013-05-01 00:59:00,58.3,49.6,30.17,ESE,107,3.0,13.0,73,0.00,,,0.00,meteohub,2013-05-01 04:59:00,
2013-05-01 01:04:00,58.3,49.6,30.17,ESE,119,4.0,12.0,73,0.00,,,0.00,meteohub,2013-05-01 05:04:00,
2013-05-01 01:09:00,58.5,49.8,30.17,ESE,121,4.0,14.0,73,0.00,,,0.00,meteohub,2013-05-01 05:09:00,
2013-05-01 01:14:00,58.3,50.0,30.17,SSE,167,2.0,14.0,74,0.00,,,0.00,meteohub,2013-05-01 05:14:00,
2013-05-01 01:19:00,58.1,49.8,30.16,SW,221,5.0,14.0,74,0.00,,,0.00,meteohub,2013-05-01 05:19:00,
2013-05-01 01:24:00,58.3,50.0,30.17,SE,138,0.0,13.0,74,0.00,,,0.00,meteohub,2013-05-01 05:24:00,
2013-05-01 01:29:00,58.1,49.8,30.17,SSE,154,5.0,13.0,74,0.00,,,0.00,meteohub,2013-05-01 05:29:00,
2013-05-01 01:34:00,58.1,49.8,30.17,ENE,70,3.0,11.0,74,0.00,,,0.00,meteohub,2013-05-01 05:34:00,
2013-05-01 01:40:00,58.1,49.8,30.17,ESE,117,5.0,14.0,74,0.00,,,0.00,meteohub,2013-05-01 05:40:00,
2013-05-01 01:45:00,58.1,49.8,30.17,East,92,7.0,14.0,74,0.00,,,0.00,meteohub,2013-05-01 05:45:00,
2013-05-01 01:50:00,57.9,49.6,30.17,ESE,122,2.0,14.0,74,0.00,,,0.00,meteohub,2013-05-01 05:50:00,
2013-05-01 01:55:00,57.9,49.6,30.17,ENE,60,3.0,13.0,74,0.00,,,0.00,meteohub,2013-05-01 05:55:00,
2013-05-01 02:00:00,57.9,49.6,30.17,ESE,110,6.0,13.0,74,0.00,,,0.00,meteohub,2013-05-01 06:00:00,
2013-05-01 02:05:00,57.7,49.8,30.17,NE,41,2.0,13.0,75,0.00,,,0.00,meteohub,2013-05-01 06:05:00,
2013-05-01 02:10:00,57.7,49.8,30.17,ESE,120,10.0,13.0,75,0.00,,,0.00,meteohub,2013-05-01 06:10:00,
2013-05-01 02:15:00,57.7,49.8,30.17,East,100,10.0,13.0,75,0.00,,,0.00,meteohub,2013-05-01 06:15:00,
2013-05-01 02:20:00,57.7,49.8,30.17,ESE,117,3.0,13.0,75,0.00,,,0.00,meteohub,2013-05-01 06:20:00,
2013-05-01 02:25:00,57.7,49.8,30.17,ESE,117,2.0,11.0,75,0.00,,,0.00,meteohub,2013-05-01 06:25:00,
2013-05-01 02:30:00,57.7,49.8,30.17,SE,136,5.0,11.0,75,0.00,,,0.00,meteohub,2013-05-01 06:30:00,
2013-05-01 02:35:00,57.7,49.8,30.17,ESE,110,8.0,10.0,75,0.00,,,0.00,meteohub,2013-05-01 06:35:00,
2013-05-01 02:40:00,57.7,49.8,30.17,SSE,152,3.0,11.0,75,0.00,,,0.00,meteohub,2013-05-01 06:40:00,
2013-05-01 02:45:00,57.7,49.8,30.17,ENE,78,4.0,11.0,75,0.00,,,0.00,meteohub,2013-05-01 06:45:00,
2013-05-01 02:51:00,57.7,49.8,30.17,ESE,115,3.0,12.0,75,0.00,,,0.00,meteohub,2013-05-01 06:51:00,
2013-05-01 02:56:00,57.7,49.8,30.17,East,97,5.0,12.0,75,0.00,,,0.00,meteohub,2013-05-01 06:56:00,
2013-05-01 03:01:00,57.7,49.8,30.17,ESE,112,5.0,16.0,75,0.00,,,0.00,meteohub,2013-05-01 07:01:00,
2013-05-01 03:06:00,57.6,49.6,30.16,SE,143,8.0,16.0,75,0.00,,,0.00,meteohub,2013-05-01 07:06:00,
2013-05-01 03:11:00,57.6,49.6,30.16,ESE,115,6.0,14.0,75,0.00,,,0.00,meteohub,2013-05-01 07:11:00,
2013-05-01 03:16:00,57.4,49.8,30.17,East,80,7.0,14.0,76,0.00,,,0.00,meteohub,2013-05-01 07:16:00,
2013-05-01 03:21:00,57.4,49.8,30.17,SSE,155,13.0,13.0,76,0.00,,,0.00,meteohub,2013-05-01 07:21:00,
2013-05-01 03:26:00,57.4,49.8,30.16,ESE,104,8.0,13.0,76,0.00,,,0.00,meteohub,2013-05-01 07:26:00,
2013-05-01 03:31:00,57.4,49.8,30.16,SSE,165,2.0,17.0,76,0.00,,,0.00,meteohub,2013-05-01 07:31:00,
2013-05-01 03:36:00,57.4,49.8,30.17,ESE,123,4.0,17.0,76,0.00,,,0.00,meteohub,2013-05-01 07:36:00,
2013-05-01 03:41:00,57.4,49.8,30.16,ESE,105,7.0,17.0,76,0.00,,,0.00,meteohub,2013-05-01 07:41:00,
2013-05-01 03:46:00,57.4,49.8,30.17,SE,124,2.0,18.0,76,0.00,,,0.00,meteohub,2013-05-01 07:46:00,
2013-05-01 03:51:00,57.4,49.8,30.17,SE,128,7.0,18.0,76,0.00,,,0.00,meteohub,2013-05-01 07:51:00,
2013-05-01 03:56:00,57.4,49.8,30.17,SSE,149,5.0,14.0,76,0.00,,,0.00,meteohub,2013-05-01 07:56:00,
2013-05-01 04:02:00,57.2,49.6,30.17,ESE,117,7.0,14.0,76,0.00,,,0.00,meteohub,2013-05-01 08:02:00,
2013-05-01 04:07:00,57.0,49.5,30.17,SSE,149,3.0,14.0,76,0.00,,,0.00,meteohub,2013-05-01 08:07:00,
2013-05-01 04:12:00,56.8,49.6,30.17,ESE,117,5.0,14.0,77,0.00,,,0.00,meteohub,2013-05-01 08:12:00,
2013-05-01 04:17:00,56.8,49.6,30.17,East,98,7.0,13.0,77,0.00,,,0.00,meteohub,2013-05-01 08:17:00,
2013-05-01 04:22:00,56.7,49.5,30.17,ESE,105,6.0,16.0,77,0.00,,,0.00,meteohub,2013-05-01 08:22:00,
2013-05-01 04:27:00,56.7,49.5,30.17,SE,136,6.0,16.0,77,0.00,,,0.00,meteohub,2013-05-01 08:27:00,
2013-05-01 04:32:00,56.7,49.5,30.17,East,84,6.0,19.0,77,0.00,,,0.00,meteohub,2013-05-01 08:32:00,
2013-05-01 04:37:00,56.7,49.8,30.17,East,101,4.0,19.0,78,0.00,,,0.00,meteohub,2013-05-01 08:37:00,
2013-05-01 04:42:00,56.8,50.0,30.17,SE,133,10.0,19.0,78,0.00,,,0.00,meteohub,2013-05-01 08:42:00,
2013-05-01 04:47:00,56.8,49.6,30.17,East,86,7.0,17.0,77,0.00,,,0.00,meteohub,2013-05-01 08:47:00,
2013-05-01 04:52:00,56.8,49.6,30.17,East,101,4.0,19.0,77,0.00,,,0.00,meteohub,2013-05-01 08:52:00,
2013-05-01 04:57:00,56.7,49.8,30.17,ESE,104,4.0,19.0,78,0.00,,,0.00,meteohub,2013-05-01 08:57:00,
2013-05-01 05:02:00,56.5,49.6,30.17,SSE,165,3.0,19.0,78,0.00,,,0.00,meteohub,2013-05-01 09:02:00,
2013-05-01 05:07:00,56.5,49.6,30.17,South,179,9.0,17.0,78,0.00,,,0.00,meteohub,2013-05-01 09:07:00,
2013-05-01 05:12:00,56.3,49.8,30.17,South,182,7.0,14.0,79,0.00,,,0.00,meteohub,2013-05-01 09:12:00,
2013-05-01 05:17:00,56.1,49.6,30.17,ESE,118,10.0,14.0,79,0.00,,,0.00,meteohub,2013-05-01 09:17:00,
2013-05-01 05:22:00,56.1,49.6,30.17,SE,128,5.0,18.0,79,0.00,,,0.00,meteohub,2013-05-01 09:22:00,
2013-05-01 05:27:00,56.1,49.3,30.18,ESE,120,13.0,18.0,78,0.00,,,0.00,meteohub,2013-05-01 09:27:00,
2013-05-01 05:32:00,55.9,49.1,30.18,ESE,109,5.0,16.0,78,0.00,,,0.00,meteohub,2013-05-01 09:32:00,
2013-05-01 05:37:00,55.9,49.1,30.18,ESE,105,8.0,16.0,78,0.00,,,0.00,meteohub,2013-05-01 09:37:00,
2013-05-01 05:42:00,55.8,48.9,30.19,ESE,118,8.0,15.0,78,0.00,,,0.00,meteohub,2013-05-01 09:42:00,
2013-05-01 05:47:00,55.6,48.9,30.19,SE,129,3.0,24.0,78,0.00,,,0.00,meteohub,2013-05-01 09:47:00,
2013-05-01 05:52:00,55.4,48.7,30.19,East,101,7.0,24.0,78,0.00,,,0.00,meteohub,2013-05-01 09:52:00,
2013-05-01 05:57:00,55.4,48.7,30.19,SE,140,6.0,24.0,78,0.00,,,0.00,meteohub,2013-05-01 09:57:00,
2013-05-01 06:02:00,55.2,48.7,30.19,SE,129,8.0,18.0,79,0.00,,,0.00,meteohub,2013-05-01 10:02:00,
2013-05-01 06:07:00,55.0,48.6,30.20,SE,146,9.0,18.0,79,0.00,,,0.00,meteohub,2013-05-01 10:07:00,
2013-05-01 06:12:00,55.0,48.6,30.20,ESE,111,12.0,18.0,79,0.00,,,0.00,meteohub,2013-05-01 10:12:00,
2013-05-01 06:17:00,55.0,48.6,30.21,East,79,7.0,15.0,79,0.00,,,0.00,meteohub,2013-05-01 10:17:00,
2013-05-01 06:22:00,54.9,48.6,30.21,ESE,105,9.0,13.0,79,0.00,,,0.00,meteohub,2013-05-01 10:22:00,
2013-05-01 06:27:00,54.9,48.6,30.21,East,86,6.0,20.0,79,0.00,,,0.00,meteohub,2013-05-01 10:27:00,
2013-05-01 06:32:00,54.9,48.6,30.22,ESE,113,8.0,20.0,79,0.00,,,0.00,meteohub,2013-05-01 10:32:00,
2013-05-01 06:37:00,54.9,48.6,30.22,SE,145,15.0,15.0,79,0.00,,,0.00,meteohub,2013-05-01 10:37:00,
2013-05-01 06:42:00,54.9,48.2,30.23,SSE,163,4.0,15.0,78,0.00,,,0.00,meteohub,2013-05-01 10:42:00,
2013-05-01 06:47:00,54.9,48.2,30.23,SE,137,3.0,15.0,78,0.00,,,0.00,meteohub,2013-05-01 10:47:00,
2013-05-01 06:52:00,54.9,48.2,30.23,SE,135,5.0,15.0,78,0.00,,,0.00,meteohub,2013-05-01 10:52:00,
2013-05-01 06:57:00,54.7,48.0,30.23,SSE,160,5.0,15.0,78,0.00,,,0.00,meteohub,2013-05-01 10:57:00,
2013-05-01 07:02:00,54.7,48.0,30.24,East,96,4.0,14.0,78,0.00,,,0.00,meteohub,2013-05-01 11:02:00,
2013-05-01 07:07:00,54.7,48.0,30.24,SSE,155,5.0,14.0,78,0.00,,,0.00,meteohub,2013-05-01 11:07:00,
2013-05-01 07:12:00,54.9,48.2,30.24,SE,129,5.0,14.0,78,0.00,,,0.00,meteohub,2013-05-01 11:12:00,
2013-05-01 07:17:00,54.9,48.2,30.24,East,94,5.0,13.0,78,0.00,,,0.00,meteohub,2013-05-01 11:17:00,
2013-05-01 07:22:00,54.9,48.2,30.24,ENE,62,17.0,17.0,78,0.00,,,0.00,meteohub,2013-05-01 11:22:00,
2013-05-01 07:27:00,55.0,48.4,30.24,ESE,112,4.0,17.0,78,0.00,,,0.00,meteohub,2013-05-01 11:27:00,
2013-05-01 07:32:00,55.0,48.4,30.25,East,82,5.0,17.0,78,0.00,,,0.00,meteohub,2013-05-01 11:32:00,
2013-05-01 07:37:00,55.0,48.4,30.25,East,79,3.0,17.0,78,0.00,,,0.00,meteohub,2013-05-01 11:37:00,
2013-05-01 07:42:00,55.2,48.2,30.25,SSE,151,5.0,12.0,77,0.00,,,0.00,meteohub,2013-05-01 11:42:00,
2013-05-01 07:47:00,55.4,48.4,30.25,SSE,148,8.0,13.0,77,0.00,,,0.00,meteohub,2013-05-01 11:47:00,
2013-05-01 07:52:00,55.8,48.7,30.25,ESE,110,3.0,13.0,77,0.00,,,0.00,meteohub,2013-05-01 11:52:00,
2013-05-01 07:57:00,55.9,48.6,30.26,ESE,111,6.0,16.0,76,0.00,,,0.00,meteohub,2013-05-01 11:57:00,
2013-05-01 08:02:00,56.1,48.7,30.26,East,83,4.0,16.0,76,0.00,,,0.00,meteohub,2013-05-01 12:02:00,
2013-05-01 08:07:00,56.3,48.9,30.26,ESE,110,12.0,16.0,76,0.00,,,0.00,meteohub,2013-05-01 12:07:00,
2013-05-01 08:12:00,56.5,48.9,30.26,East,94,3.0,18.0,76,0.00,,,0.00,meteohub,2013-05-01 12:12:00,
2013-05-01 08:17:00,56.7,48.7,30.26,SE,141,3.0,18.0,75,0.00,,,0.00,meteohub,2013-05-01 12:17:00,
2013-05-01 08:22:00,56.8,48.9,30.26,SW,215,9.0,18.0,75,0.00,,,0.00,meteohub,2013-05-01 12:22:00,
2013-05-01 08:27:00,57.0,49.1,30.26,SE,143,5.0,19.0,75,0.00,,,0.00,meteohub,2013-05-01 12:27:00,
2013-05-01 08:32:00,57.2,48.9,30.26,SE,142,6.0,19.0,74,0.00,,,0.00,meteohub,2013-05-01 12:32:00,
2013-05-01 08:37:00,57.6,49.3,30.26,SSE,153,5.0,19.0,74,0.00,,,0.00,meteohub,2013-05-01 12:37:00,
2013-05-01 08:42:00,58.3,49.6,30.26,ESE,107,4.0,13.0,73,0.00,,,0.00,meteohub,2013-05-01 12:42:00,
2013-05-01 08:47:00,58.6,49.6,30.27,SE,142,6.0,16.0,72,0.00,,,0.00,meteohub,2013-05-01 12:47:00,
2013-05-01 08:52:00,59.2,49.8,30.27,East,91,6.0,16.0,71,0.00,,,0.00,meteohub,2013-05-01 12:52:00,
2013-05-01 08:57:00,59.5,49.8,30.27,WNW,285,2.0,12.0,70,0.00,,,0.00,meteohub,2013-05-01 12:57:00,
2013-05-01 09:02:00,59.9,49.6,30.27,East,101,3.0,15.0,69,0.00,,,0.00,meteohub,2013-05-01 13:02:00,
2013-05-01 09:07:00,60.3,50.0,30.28,NE,38,3.0,15.0,69,0.00,,,0.00,meteohub,2013-05-01 13:07:00,
2013-05-01 09:12:00,60.4,49.5,30.28,NNW,346,8.0,15.0,67,0.00,,,0.00,meteohub,2013-05-01 13:12:00,
2013-05-01 09:17:00,60.3,50.0,30.28,NNW,347,1.0,15.0,69,0.00,,,0.00,meteohub,2013-05-01 13:17:00,
2013-05-01 09:22:00,60.8,49.8,30.28,SE,139,6.0,15.0,67,0.00,,,0.00,meteohub,2013-05-01 13:22:00,
2013-05-01 09:27:00,60.6,49.3,30.28,WSW,246,4.0,15.0,66,0.00,,,0.00,meteohub,2013-05-01 13:27:00,
2013-05-01 09:32:00,60.4,49.5,30.28,East,98,10.0,22.0,67,0.00,,,0.00,meteohub,2013-05-01 13:32:00,
2013-05-01 09:37:00,60.8,49.5,30.29,West,276,7.0,22.0,66,0.00,,,0.00,meteohub,2013-05-01 13:37:00,
2013-05-01 09:42:00,61.2,49.6,30.28,WNW,302,1.0,22.0,66,0.00,,,0.00,meteohub,2013-05-01 13:42:00,
2013-05-01 09:47:00,61.5,50.0,30.28,ENE,58,1.0,13.0,66,0.00,,,0.00,meteohub,2013-05-01 13:47:00,
2013-05-01 09:52:00,62.1,50.5,30.29,WSW,253,1.0,17.0,66,0.00,,,0.00,meteohub,2013-05-01 13:52:00,
2013-05-01 09:57:00,62.4,49.6,30.29,North,354,1.0,17.0,63,0.00,,,0.00,meteohub,2013-05-01 13:57:00,
2013-05-01 10:02:00,62.8,50.9,30.29,South,170,2.0,8.0,65,0.00,,,0.00,meteohub,2013-05-01 14:02:00,
2013-05-01 10:07:00,63.3,50.0,30.29,South,173,2.0,8.0,62,0.00,,,0.00,meteohub,2013-05-01 14:07:00,
2013-05-01 10:12:00,63.5,50.2,30.30,ESE,102,6.0,10.0,62,0.00,,,0.00,meteohub,2013-05-01 14:12:00,
2013-05-01 10:17:00,63.9,50.5,30.30,WNW,291,1.0,10.0,62,0.00,,,0.00,meteohub,2013-05-01 14:17:00,
2013-05-01 10:22:00,63.7,50.4,30.30,SSE,153,5.0,11.0,62,0.00,,,0.00,meteohub,2013-05-01 14:22:00,
2013-05-01 10:27:00,63.9,49.6,30.30,SE,125,0.0,12.0,60,0.00,,,0.00,meteohub,2013-05-01 14:27:00,
2013-05-01 10:32:00,64.0,49.8,30.30,NNE,27,2.0,13.0,60,0.00,,,0.00,meteohub,2013-05-01 14:32:00,
2013-05-01 10:37:00,64.0,50.4,30.30,SE,131,1.0,14.0,61,0.00,,,0.00,meteohub,2013-05-01 14:37:00,
2013-05-01 10:42:00,64.2,49.6,30.30,ENE,63,3.0,14.0,59,0.00,,,0.00,meteohub,2013-05-01 14:42:00,
2013-05-01 10:47:00,64.8,51.4,30.30,SSW,209,7.0,16.0,62,0.00,,,0.00,meteohub,2013-05-01 14:47:00,
2013-05-01 10:52:00,65.7,50.9,30.30,ESE,115,1.0,16.0,59,0.00,,,0.00,meteohub,2013-05-01 14:52:00,
2013-05-01 10:57:00,66.0,51.3,30.30,SSW,197,0.0,16.0,59,0.00,,,0.00,meteohub,2013-05-01 14:57:00,
2013-05-01 11:02:00,66.6,52.2,30.30,WSW,240,2.0,7.0,60,0.00,,,0.00,meteohub,2013-05-01 15:02:00,
2013-05-01 11:07:00,67.1,51.8,30.30,West,262,3.0,6.0,58,0.00,,,0.00,meteohub,2013-05-01 15:07:00,
2013-05-01 11:12:00,67.3,51.1,30.30,WSW,242,2.0,6.0,56,0.00,,,0.00,meteohub,2013-05-01 15:12:00,
2013-05-01 11:17:00,66.9,51.6,30.30,SSE,152,1.0,5.0,58,0.00,,,0.00,meteohub,2013-05-01 15:17:00,
2013-05-01 11:22:00,66.9,51.3,30.30,ESE,108,3.0,8.0,57,0.00,,,0.00,meteohub,2013-05-01 15:22:00,
2013-05-01 11:27:00,66.9,50.2,30.30,SE,136,0.0,9.0,55,0.00,,,0.00,meteohub,2013-05-01 15:27:00,
2013-05-01 11:32:00,67.3,50.5,30.30,SSE,148,3.0,9.0,55,0.00,,,0.00,meteohub,2013-05-01 15:32:00,
2013-05-01 11:37:00,67.6,50.9,30.30,East,87,1.0,12.0,55,0.00,,,0.00,meteohub,2013-05-01 15:37:00,
2013-05-01 11:42:00,67.6,50.9,30.29,SSE,155,1.0,12.0,55,0.00,,,0.00,meteohub,2013-05-01 15:42:00,
2013-05-01 11:47:00,68.0,51.3,30.29,NW,326,4.0,9.0,55,0.00,,,0.00,meteohub,2013-05-01 15:47:00,
2013-05-01 11:52:00,68.2,50.9,30.29,East,85,3.0,9.0,54,0.00,,,0.00,meteohub,2013-05-01 15:52:00,
2013-05-01 11:58:00,68.5,52.7,30.29,NW,307,2.0,12.0,57,0.00,,,0.00,meteohub,2013-05-01 15:58:00,
2013-05-01 12:03:00,68.7,51.4,30.29,ESE,104,8.0,12.0,54,0.00,,,0.00,meteohub,2013-05-01 16:03:00,
2013-05-01 12:08:00,68.9,51.6,30.29,East,85,2.0,12.0,54,0.00,,,0.00,meteohub,2013-05-01 16:08:00,
2013-05-01 12:13:00,69.3,52.3,30.28,ESE,110,5.0,12.0,55,0.00,,,0.00,meteohub,2013-05-01 16:13:00,
2013-05-01 12:18:00,69.6,52.2,30.28,ESE,110,5.0,12.0,54,0.00,,,0.00,meteohub,2013-05-01 16:18:00,
2013-05-01 12:23:00,70.0,53.1,30.28,SSE,162,7.0,10.0,55,0.00,,,0.00,meteohub,2013-05-01 16:23:00,
2013-05-01 12:28:00,69.8,52.0,30.27,ESE,106,4.0,10.0,53,0.00,,,0.00,meteohub,2013-05-01 16:28:00,
2013-05-01 12:33:00,70.0,52.0,30.28,SSW,193,1.0,12.0,53,0.00,,,0.00,meteohub,2013-05-01 16:33:00,
2013-05-01 12:38:00,70.3,51.4,30.28,ESE,116,0.0,12.0,51,0.00,,,0.00,meteohub,2013-05-01 16:38:00,
2013-05-01 12:43:00,70.9,52.3,30.28,SE,136,8.0,12.0,52,0.00,,,0.00,meteohub,2013-05-01 16:43:00,
2013-05-01 12:48:00,70.7,51.1,30.28,SSW,193,4.0,11.0,50,0.00,,,0.00,meteohub,2013-05-01 16:48:00,
2013-05-01 12:53:00,70.7,52.2,30.28,ENE,72,8.0,12.0,52,0.00,,,0.00,meteohub,2013-05-01 16:53:00,
2013-05-01 12:58:00,71.1,51.4,30.28,SE,139,3.0,12.0,50,0.00,,,0.00,meteohub,2013-05-01 16:58:00,
2013-05-01 13:03:00,71.1,52.0,30.27,South,187,0.0,12.0,51,0.00,,,0.00,meteohub,2013-05-01 17:03:00,
2013-05-01 13:09:00,71.2,51.6,30.27,SE,135,3.0,10.0,50,0.00,,,0.00,meteohub,2013-05-01 17:09:00,
2013-05-01 13:14:00,71.6,52.0,30.27,ENE,69,1.0,10.0,50,0.00,,,0.00,meteohub,2013-05-01 17:14:00,
2013-05-01 13:19:00,71.8,52.2,30.27,SE,141,3.0,10.0,50,0.00,,,0.00,meteohub,2013-05-01 17:19:00,
2013-05-01 13:24:00,71.8,51.6,30.27,ENE,58,7.0,9.0,49,0.00,,,0.00,meteohub,2013-05-01 17:24:00,
2013-05-01 13:29:00,71.8,51.6,30.27,SSE,160,8.0,9.0,49,0.00,,,0.00,meteohub,2013-05-01 17:29:00,
2013-05-01 13:34:00,71.4,51.8,30.27,South,169,2.0,11.0,50,0.00,,,0.00,meteohub,2013-05-01 17:34:00,
2013-05-01 13:39:00,71.8,51.6,30.27,SSE,152,5.0,11.0,49,0.00,,,0.00,meteohub,2013-05-01 17:39:00,
2013-05-01 13:44:00,72.0,51.3,30.27,ENE,58,0.0,11.0,48,0.00,,,0.00,meteohub,2013-05-01 17:44:00,
2013-05-01 13:49:00,72.7,52.3,30.27,ESE,113,2.0,8.0,49,0.00,,,0.00,meteohub,2013-05-01 17:49:00,
2013-05-01 13:54:00,72.9,51.4,30.27,NE,54,4.0,8.0,47,0.00,,,0.00,meteohub,2013-05-01 17:54:00,
2013-05-01 13:59:00,72.7,51.3,30.27,East,82,4.0,10.0,47,0.00,,,0.00,meteohub,2013-05-01 17:59:00,
2013-05-01 14:04:00,72.9,52.0,30.27,East,84,3.0,10.0,48,0.00,,,0.00,meteohub,2013-05-01 18:04:00,
2013-05-01 14:09:00,73.0,51.1,30.26,SSE,159,0.0,10.0,46,0.00,,,0.00,meteohub,2013-05-01 18:09:00,
2013-05-01 14:14:00,73.0,50.4,30.26,ENE,74,3.0,9.0,45,0.00,,,0.00,meteohub,2013-05-01 18:14:00,
2013-05-01 14:20:00,73.0,51.1,30.26,NNW,333,1.0,10.0,46,0.00,,,0.00,meteohub,2013-05-01 18:20:00,
2013-05-01 14:25:00,73.2,50.5,30.26,South,171,3.0,10.0,45,0.00,,,0.00,meteohub,2013-05-01 18:25:00,
2013-05-01 14:30:00,73.6,50.9,30.27,SSE,167,1.0,10.0,45,0.00,,,0.00,meteohub,2013-05-01 18:30:00,
2013-05-01 14:35:00,73.4,50.2,30.26,ESE,104,5.0,10.0,44,0.00,,,0.00,meteohub,2013-05-01 18:35:00,
2013-05-01 14:40:00,73.4,50.2,30.26,SE,127,2.0,10.0,44,0.00,,,0.00,meteohub,2013-05-01 18:40:00,
2013-05-01 14:45:00,73.8,51.1,30.26,East,80,4.0,14.0,45,0.00,,,0.00,meteohub,2013-05-01 18:45:00,
2013-05-01 14:50:00,74.1,50.9,30.25,SW,215,2.0,11.0,44,0.00,,,0.00,meteohub,2013-05-01 18:50:00,
2013-05-01 14:55:00,74.5,50.5,30.25,SE,130,3.0,6.0,43,0.00,,,0.00,meteohub,2013-05-01 18:55:00,
2013-05-01 15:00:00,74.5,49.8,30.25,NNE,22,2.0,10.0,42,0.00,,,0.00,meteohub,2013-05-01 19:00:00,
2013-05-01 15:05:00,74.7,49.5,30.25,SSW,195,3.0,10.0,41,0.00,,,0.00,meteohub,2013-05-01 19:05:00,
2013-05-01 15:10:00,74.8,50.9,30.25,ENE,70,1.0,10.0,43,0.00,,,0.00,meteohub,2013-05-01 19:10:00,
2013-05-01 15:15:00,75.6,49.5,30.25,SSW,193,6.0,8.0,40,0.00,,,0.00,meteohub,2013-05-01 19:15:00,
2013-05-01 15:20:00,75.7,50.4,30.25,SE,138,4.0,8.0,41,0.00,,,0.00,meteohub,2013-05-01 19:20:00,
2013-05-01 15:26:00,75.6,48.9,30.25,SW,228,4.0,8.0,39,0.00,,,0.00,meteohub,2013-05-01 19:26:00,
2013-05-01 15:31:00,75.2,48.6,30.25,SE,124,1.0,9.0,39,0.00,,,0.00,meteohub,2013-05-01 19:31:00,
2013-05-01 15:36:00,75.4,48.0,30.25,SSW,195,1.0,9.0,38,0.00,,,0.00,meteohub,2013-05-01 19:36:00,
2013-05-01 15:41:00,75.6,48.9,30.25,East,101,5.0,9.0,39,0.00,,,0.00,meteohub,2013-05-01 19:41:00,
2013-05-01 15:46:00,75.6,52.7,30.25,ENE,61,0.0,6.0,45,0.00,,,0.00,meteohub,2013-05-01 19:46:00,
2013-05-01 15:51:00,75.4,48.7,30.25,East,94,2.0,11.0,39,0.00,,,0.00,meteohub,2013-05-01 19:51:00,
2013-05-01 15:56:00,75.4,48.0,30.25,SE,129,2.0,11.0,38,0.00,,,0.00,meteohub,2013-05-01 19:56:00,
2013-05-01 16:01:00,75.6,48.9,30.25,ESE,122,4.0,8.0,39,0.00,,,0.00,meteohub,2013-05-01 20:01:00,
2013-05-01 16:06:00,75.6,47.5,30.25,ESE,104,3.0,7.0,37,0.00,,,0.00,meteohub,2013-05-01 20:06:00,
2013-05-01 16:11:00,75.6,47.5,30.25,East,91,4.0,8.0,37,0.00,,,0.00,meteohub,2013-05-01 20:11:00,
2013-05-01 16:16:00,75.4,47.3,30.24,ENE,68,2.0,13.0,37,0.00,,,0.00,meteohub,2013-05-01 20:16:00,
2013-05-01 16:21:00,75.6,49.5,30.24,WSW,249,3.0,13.0,40,0.00,,,0.00,meteohub,2013-05-01 20:21:00,
2013-05-01 16:27:00,75.6,46.8,30.25,East,86,1.0,13.0,36,0.00,,,0.00,meteohub,2013-05-01 20:27:00,
2013-05-01 16:32:00,75.7,48.4,30.25,East,86,0.0,9.0,38,0.00,,,0.00,meteohub,2013-05-01 20:32:00,
2013-05-01 16:37:00,76.1,48.0,30.25,SE,126,4.0,9.0,37,0.00,,,0.00,meteohub,2013-05-01 20:37:00,
2013-05-01 16:42:00,75.9,48.6,30.25,SE,126,1.0,10.0,38,0.00,,,0.00,meteohub,2013-05-01 20:42:00,
2013-05-01 16:47:00,76.3,47.3,30.25,SW,221,0.0,10.0,36,0.00,,,0.00,meteohub,2013-05-01 20:47:00,
2013-05-01 16:52:00,76.3,45.9,30.25,SSE,161,3.0,10.0,34,0.00,,,0.00,meteohub,2013-05-01 20:52:00,
2013-05-01 16:57:00,76.1,48.0,30.25,West,259,1.0,7.0,37,0.00,,,0.00,meteohub,2013-05-01 20:57:00,
2013-05-01 17:02:00,76.5,47.5,30.25,ESE,104,1.0,7.0,36,0.00,,,0.00,meteohub,2013-05-01 21:02:00,
2013-05-01 17:07:00,76.6,48.4,30.25,ENE,78,2.0,7.0,37,0.00,,,0.00,meteohub,2013-05-01 21:07:00,
2013-05-01 17:12:00,76.3,44.2,30.25,SE,129,3.0,6.0,32,0.00,,,0.00,meteohub,2013-05-01 21:12:00,
2013-05-01 17:17:00,76.3,45.9,30.25,SE,126,3.0,6.0,34,0.00,,,0.00,meteohub,2013-05-01 21:17:00,
2013-05-01 17:22:00,76.3,45.9,30.25,ESE,107,1.0,7.0,34,0.00,,,0.00,meteohub,2013-05-01 21:22:00,
2013-05-01 17:27:00,76.3,44.2,30.25,SSE,147,3.0,7.0,32,0.00,,,0.00,meteohub,2013-05-01 21:27:00,
2013-05-01 17:32:00,76.3,44.2,30.25,NNE,30,3.0,7.0,32,0.00,,,0.00,meteohub,2013-05-01 21:32:00,
2013-05-01 17:37:00,75.7,43.7,30.25,East,86,1.0,8.0,32,0.00,,,0.00,meteohub,2013-05-01 21:37:00,
2013-05-01 17:42:00,75.6,41.9,30.25,SE,124,3.0,8.0,30,0.00,,,0.00,meteohub,2013-05-01 21:42:00,
2013-05-01 17:47:00,75.6,42.8,30.25,ESE,120,2.0,9.0,31,0.00,,,0.00,meteohub,2013-05-01 21:47:00,
2013-05-01 17:52:00,75.4,41.7,30.25,ESE,112,0.0,9.0,30,0.00,,,0.00,meteohub,2013-05-01 21:52:00,
2013-05-01 17:57:00,75.4,41.7,30.25,SE,128,0.0,9.0,30,0.00,,,0.00,meteohub,2013-05-01 21:57:00,
2013-05-01 18:02:00,75.4,40.1,30.25,ESE,114,2.0,7.0,28,0.00,,,0.00,meteohub,2013-05-01 22:02:00,
2013-05-01 18:08:00,75.0,41.5,30.25,South,184,1.0,7.0,30,0.00,,,0.00,meteohub,2013-05-01 22:08:00,
2013-05-01 18:13:00,75.0,41.5,30.25,East,97,3.0,7.0,30,0.00,,,0.00,meteohub,2013-05-01 22:13:00,
2013-05-01 18:18:00,74.7,41.2,30.26,SE,126,6.0,8.0,30,0.00,,,0.00,meteohub,2013-05-01 22:18:00,
2013-05-01 18:23:00,74.5,41.0,30.26,SE,130,1.0,8.0,30,0.00,,,0.00,meteohub,2013-05-01 22:23:00,
2013-05-01 18:28:00,74.3,39.0,30.25,SSE,154,9.0,9.0,28,0.00,,,0.00,meteohub,2013-05-01 22:28:00,
2013-05-01 18:33:00,74.1,37.9,30.26,ESE,117,4.0,10.0,27,0.00,,,0.00,meteohub,2013-05-01 22:33:00,
2013-05-01 18:38:00,73.9,37.8,30.26,East,94,4.0,10.0,27,0.00,,,0.00,meteohub,2013-05-01 22:38:00,
2013-05-01 18:43:00,73.6,36.5,30.25,East,98,2.0,10.0,26,0.00,,,0.00,meteohub,2013-05-01 22:43:00,
2013-05-01 18:48:00,73.8,35.8,30.26,SE,128,3.0,11.0,25,0.00,,,0.00,meteohub,2013-05-01 22:48:00,
2013-05-01 18:53:00,73.6,36.5,30.26,East,98,4.0,11.0,26,0.00,,,0.00,meteohub,2013-05-01 22:53:00,
2013-05-01 18:58:00,73.2,39.0,30.26,East,86,1.0,11.0,29,0.00,,,0.00,meteohub,2013-05-01 22:58:00,
2013-05-01 19:03:00,73.0,35.1,30.26,ESE,107,3.0,9.0,25,0.00,,,0.00,meteohub,2013-05-01 23:03:00,
2013-05-01 19:08:00,72.7,35.8,30.26,SSW,211,3.0,9.0,26,0.00,,,0.00,meteohub,2013-05-01 23:08:00,
2013-05-01 19:14:00,72.3,35.6,30.26,ENE,75,5.0,9.0,26,0.00,,,0.00,meteohub,2013-05-01 23:14:00,
2013-05-01 19:19:00,72.1,35.4,30.25,East,87,2.0,8.0,26,0.00,,,0.00,meteohub,2013-05-01 23:19:00,
2013-05-01 19:24:00,72.1,34.3,30.25,ESE,122,2.0,8.0,25,0.00,,,0.00,meteohub,2013-05-01 23:24:00,
2013-05-01 19:29:00,71.8,36.0,30.25,ESE,104,5.0,8.0,27,0.00,,,0.00,meteohub,2013-05-01 23:29:00,
2013-05-01 19:34:00,71.4,34.7,30.25,ENE,72,3.0,9.0,26,0.00,,,0.00,meteohub,2013-05-01 23:34:00,
2013-05-01 19:39:00,71.2,33.6,30.25,SE,135,1.0,9.0,25,0.00,,,0.00,meteohub,2013-05-01 23:39:00,
2013-05-01 19:44:00,71.1,34.5,30.25,SE,145,3.0,9.0,26,0.00,,,0.00,meteohub,2013-05-01 23:44:00,
2013-05-01 19:49:00,70.7,34.2,30.25,ESE,114,3.0,9.0,26,0.00,,,0.00,meteohub,2013-05-01 23:49:00,
2013-05-01 19:54:00,70.3,34.7,30.25,SE,135,3.0,9.0,27,0.00,,,0.00,meteohub,2013-05-01 23:54:00,
2013-05-01 19:59:00,69.6,35.1,30.25,East,96,1.0,9.0,28,0.00,,,0.00,meteohub,2013-05-01 23:59:00,
2013-05-01 20:04:00,69.1,34.5,30.25,SE,127,1.0,9.0,28,0.00,,,0.00,meteohub,2013-05-02 00:04:00,
2013-05-01 20:10:00,68.5,34.2,30.25,ESE,122,2.0,9.0,28,0.00,,,0.00,meteohub,2013-05-02 00:10:00,
2013-05-01 20:15:00,68.2,34.7,30.25,ESE,122,4.0,9.0,29,0.00,,,0.00,meteohub,2013-05-02 00:15:00,
2013-05-01 20:20:00,67.8,34.3,30.25,SSE,148,3.0,8.0,29,0.00,,,0.00,meteohub,2013-05-02 00:20:00,
2013-05-01 20:25:00,67.5,34.9,30.25,East,96,2.0,7.0,30,0.00,,,0.00,meteohub,2013-05-02 00:25:00,
2013-05-01 20:30:00,67.3,34.7,30.25,SW,229,4.0,11.0,30,0.00,,,0.00,meteohub,2013-05-02 00:30:00,
2013-05-01 20:35:00,67.3,34.7,30.25,SE,128,2.0,12.0,30,0.00,,,0.00,meteohub,2013-05-02 00:35:00,
2013-05-01 20:40:00,66.9,35.2,30.26,SE,136,6.0,12.0,31,0.00,,,0.00,meteohub,2013-05-02 00:40:00,
2013-05-01 20:45:00,66.6,35.1,30.26,SE,134,3.0,12.0,31,0.00,,,0.00,meteohub,2013-05-02 00:45:00,
2013-05-01 20:50:00,66.4,34.9,30.26,SE,142,8.0,12.0,31,0.00,,,0.00,meteohub,2013-05-02 00:50:00,
2013-05-01 20:56:00,66.2,35.4,30.25,East,93,5.0,14.0,32,0.00,,,0.00,meteohub,2013-05-02 00:56:00,
2013-05-01 21:01:00,66.0,35.2,30.26,SSE,167,3.0,14.0,32,0.00,,,0.00,meteohub,2013-05-02 01:01:00,
2013-05-01 21:06:00,65.8,36.7,30.26,ESE,110,5.0,13.0,34,0.00,,,0.00,meteohub,2013-05-02 01:06:00,
2013-05-01 21:11:00,65.5,36.3,30.26,SSE,157,3.0,15.0,34,0.00,,,0.00,meteohub,2013-05-02 01:11:00,
2013-05-01 21:16:00,65.3,36.1,30.27,ENE,77,6.0,15.0,34,0.00,,,0.00,meteohub,2013-05-02 01:16:00,
2013-05-01 21:21:00,65.1,36.9,30.27,SE,130,2.0,15.0,35,0.00,,,0.00,meteohub,2013-05-02 01:21:00,
2013-05-01 21:26:00,64.9,36.7,30.27,East,88,4.0,12.0,35,0.00,,,0.00,meteohub,2013-05-02 01:26:00,
2013-05-01 21:31:00,64.9,36.7,30.28,ESE,118,5.0,14.0,35,0.00,,,0.00,meteohub,2013-05-02 01:31:00,
2013-05-01 21:36:00,64.6,37.0,30.28,ESE,106,5.0,14.0,36,0.00,,,0.00,meteohub,2013-05-02 01:36:00,
2013-05-01 21:41:00,64.2,36.7,30.28,ENE,72,3.0,14.0,36,0.00,,,0.00,meteohub,2013-05-02 01:41:00,
2013-05-01 21:46:00,64.2,36.7,30.29,SE,142,8.0,13.0,36,0.00,,,0.00,meteohub,2013-05-02 01:46:00,
2013-05-01 21:52:00,64.2,36.7,30.29,ESE,121,2.0,13.0,36,0.00,,,0.00,meteohub,2013-05-02 01:52:00,
2013-05-01 21:57:00,63.9,36.3,30.29,ESE,115,7.0,13.0,36,0.00,,,0.00,meteohub,2013-05-02 01:57:00,
2013-05-01 22:02:00,63.7,36.1,30.29,ESE,106,3.0,10.0,36,0.00,,,0.00,meteohub,2013-05-02 02:02:00,
2013-05-01 22:07:00,63.5,36.1,30.28,ENE,58,2.0,10.0,36,0.00,,,0.00,meteohub,2013-05-02 02:07:00,
2013-05-01 22:12:00,63.3,36.0,30.29,SE,138,3.0,10.0,36,0.00,,,0.00,meteohub,2013-05-02 02:12:00,
2013-05-01 22:17:00,63.1,35.8,30.29,East,99,3.0,11.0,36,0.00,,,0.00,meteohub,2013-05-02 02:17:00,
2013-05-01 22:22:00,63.1,35.8,30.29,ESE,122,3.0,11.0,36,0.00,,,0.00,meteohub,2013-05-02 02:22:00,
2013-05-01 22:27:00,62.8,36.1,30.29,ESE,108,1.0,11.0,37,0.00,,,0.00,meteohub,2013-05-02 02:27:00,
2013-05-01 22:32:00,62.6,36.0,30.29,SSW,197,2.0,12.0,37,0.00,,,0.00,meteohub,2013-05-02 02:32:00,
2013-05-01 22:37:00,62.4,35.1,30.29,SSE,156,3.0,12.0,36,0.00,,,0.00,meteohub,2013-05-02 02:37:00,
2013-05-01 22:42:00,62.4,35.1,30.29,ENE,70,4.0,12.0,36,0.00,,,0.00,meteohub,2013-05-02 02:42:00,
2013-05-01 22:47:00,62.2,34.9,30.29,SE,140,4.0,12.0,36,0.00,,,0.00,meteohub,2013-05-02 02:47:00,
2013-05-01 22:52:00,62.2,34.9,30.29,ESE,121,0.0,12.0,36,0.00,,,0.00,meteohub,2013-05-02 02:52:00,
2013-05-01 22:57:00,62.1,34.9,30.29,ESE,106,5.0,12.0,36,0.00,,,0.00,meteohub,2013-05-02 02:57:00,
2013-05-01 23:02:00,62.1,34.9,30.29,SE,135,5.0,12.0,36,0.00,,,0.00,meteohub,2013-05-02 03:02:00,
2013-05-01 23:07:00,61.9,34.7,30.29,ENE,68,3.0,12.0,36,0.00,,,0.00,meteohub,2013-05-02 03:07:00,
2013-05-01 23:12:00,61.9,34.7,30.29,ESE,108,5.0,12.0,36,0.00,,,0.00,meteohub,2013-05-02 03:12:00,
2013-05-01 23:17:00,61.9,34.7,30.28,ESE,113,3.0,15.0,36,0.00,,,0.00,meteohub,2013-05-02 03:17:00,
2013-05-01 23:22:00,61.5,35.1,30.28,East,94,5.0,15.0,37,0.00,,,0.00,meteohub,2013-05-02 03:22:00,
2013-05-01 23:27:00,61.3,34.9,30.28,SE,127,3.0,15.0,37,0.00,,,0.00,meteohub,2013-05-02 03:27:00,
2013-05-01 23:32:00,61.3,34.9,30.28,SE,126,8.0,14.0,37,0.00,,,0.00,meteohub,2013-05-02 03:32:00,
2013-05-01 23:37:00,61.3,34.9,30.28,South,180,3.0,14.0,37,0.00,,,0.00,meteohub,2013-05-02 03:37:00,
2013-05-01 23:42:00,61.0,35.2,30.28,East,91,5.0,13.0,38,0.00,,,0.00,meteohub,2013-05-02 03:42:00,
2013-05-01 23:47:00,61.0,34.5,30.28,East,86,8.0,11.0,37,0.00,,,0.00,meteohub,2013-05-02 03:47:00,
2013-05-01 23:52:00,61.0,35.2,30.27,SE,146,2.0,11.0,38,0.00,,,0.00,meteohub,2013-05-02 03:52:00,
2013-05-01 23:57:00,60.6,34.9,30.28,North,0,5.0,12.0,38,0.00,,,0.00,meteohub,2013-05-02 03:57:00,